COSMOS 1275 DEB

Satellite information

Favourite Embed

Satellite Type and Status

DEBRISIN ORBIT

Key statistics

Satellite COSMOS 1275 DEB at a glance.

Uptime

16104

Days in orbit

Revolutions

≈ 14.3

Per day

Orbit

LEO

Low Earth Orbit

Inclination

82.7

Latest

Satellite identification and parameters

Extended collection of information and parameters for COSMOS 1275 DEB.

Object identification

Identified? True

Debris? True

Object name: COSMOS 1275 DEB

International designator: 1981-053UQ

Object number (NORAD): 42224

Object ID (CCSDS): 42224

Country: COMMONWEALTH OF INDEPENDENT STATES (CIS)

Current information (Y/N): Y

RCS size: SMALL

Orbital parameters

Period: 100.969 minutes

Inclination: 82.73 deg

SMA: 7182.641 km

Apoapsis: 828.284 km

Periapsis: 780.728 km

RAAN: 278.8104 deg

Eccentricy: 0.0033105

Argument of periapsis: 91.131 deg

Mean anomaly: 269.3668 deg

Mean motion: 14.26187264 rev/day

Mean motion (dot): 0.00014536 rev/day2

B* drag term: 0.0060216 1/REarth

Two-line elements (TLE)

Creation date: March 31, 2025, 10:26 p.m.

Reference frame: TEME

Reference center: EARTH

Epoch: March 25, 2025, 5:50 a.m. UTC

TLE line 0: 0 COSMOS 1275 DEB

TLE line 1: 1 42224U 81053UQ 25084.24320542 .00014536 00000-0 60216-2 0 9998

TLE line 2: 2 42224 82.7300 278.8104 0033105 91.1310 269.3668 14.26187264146005

Live tracking on map

Real-time ground track for satellite COSMOS 1275 DEB.

In-orbit conjunctions

A list of the most updated potential collisions computed for object COSMOS 1275 DEB.

Target Orbit TCA Probability of collision Miss distance Type
FENGYUN 1C DEB SSO 2025-03-15 08:03:02 0.0001514187 72.0 (m) DEBRIS
NOAA 16 DEB SSO 2025-03-11 01:43:34 0.0001088653 203.0 (m) DEBRIS

Associated space launch

Navigation satellite providing location information for the Tsiklon-B navigation system

COSMOS 1275 DEB was lifted into orbit during the mission ‘Kosmos-3M | Parus 27’, on board a Kosmos-3M space rocket.

The launch took place on June 4, 1981, 3:41 p.m. from 132/2.

For more information about the launch, click the button.

Launch to space Kosmos-3M | Parus 27
Kosmos-3M | Parus 27

Agency: N/A

Status: Launch Successful

Launch date: June 4, 1981, 3:41 p.m. UTC

Rocket: Kosmos-3M

Launch pad: 132/2

Location: Plesetsk Cosmodrome, Russian Federation

...

Latest news about this satellite

There are no fresh news available about this satellite. Check back as we update our databases every day.


Newsletter sign-up

Weekly statistics, charts and insights to help you stay on top of the space industry.